Location: Newark
(39.6172°N, 96.8533°W)
Time: 20:05:55
(UTC+00:00)

Explorer 11/Cluster Stage 4 - Visible Passes

Search period start: 16 February 2020 00:00
Search period end: 26 February 2020 00:00
Orbit: 467 x 1259 km, 28.8° (Epoch: 16 February)

Date Brightness Start Highest point End Pass type
(mag) Time Alt. Az. Time Alt. Az. Time Alt. Az.
16 Feb 8.2 11:10:23 11° SSE 11:10:23 11° SSE 11:11:17 10° SE visible
17 Feb 8.4 11:00:27 11° SSE 11:00:27 11° SSE 11:00:54 10° SE visible
17 Feb 7.9 12:44:28 10° SW 12:46:48 16° S 12:49:17 10° SE visible
18 Feb 7.9 12:33:58 10° SW 12:36:08 15° S 12:38:23 10° SSE visible
19 Feb 7.9 12:23:32 10° SW 12:25:28 14° S 12:27:28 10° SSE visible
20 Feb 7.9 12:13:07 10° SW 12:14:49 13° S 12:16:31 10° SSE visible
21 Feb 7.9 12:02:46 10° SW 12:04:08 12° SSW 12:05:30 10° S visible
22 Feb 7.9 11:52:42 10° SSW 11:53:26 11° SSW 11:54:19 10° S visible
